User: anonymous   Login
Location: Unspecified
(0.0000°N, 0.0000°E)
Time: 09:59:24
(UTC+02:00)
Language:

ARIANE 5 R/B - Orbit

View from above orbital plane
View from above orbital plane
View from above satellite
View from above satellite

Ground track
Ground track

The orbit data is extracted from the following two-line orbital elements,

1 27510U 02040C   16148.40257668 -.00000237  00000-0 -65246-3 0  9999
2 27510   5.4255 359.2952 7164426  39.7282  99.6015  2.27200678114138
Epoch (UTC): 27 May 2016 09:39:42
Eccentricity: 0.7164426
inclination: 5.4255°
perigee height: 552 km
apogee height: 35574 km
right ascension of ascending node: 359.2952°
argument of perigee: 39.7282°
revolutions per day: 2.27200678
mean anomaly at epoch: 99.6015°
orbit number at epoch: 11413

The dashed part of the orbit path shows where the satellite is in the earth's shadow,  

DLR